Weather History for Seldovia, AK

Change the Weather History Date:

Monday, July 8, 2013

  Actual Average (PAHO) Record (PAHO)
Temperature  
Mean Temperature 47 °F -  
Max Temperature 60 °F 60 °F 73 °F (1993)
Min Temperature 37 °F 46 °F 35 °F (1947)
Degree Days  
Heating Degree Days 18    
Moisture  
Dew Point 44 °F    
Average Humidity 83    
Maximum Humidity 100    
Minimum Humidity 59    
Precipitation  
Precipitation 0.01 in - - ()
Sea Level Pressure  
Sea Level Pressure 29.78 in    
Wind  
Wind Speed 2 mph (South)    
Max Wind Speed 9 mph    
Max Gust Speed -    
Visibility 9 miles    
Events Fog    
Averages and records for this station are not official NWS values.
T = Trace of Precipitation, MM = Missing Value Source: NWS Daily Summary

Daily Weather History Graph

Daily Weather History Graph

Search for Another Location

Airport:

Trip Planner

Search our weather history database for the weather conditions in past years. The results will help you decide how hot, cold, wet, or windy it might be!

Date:

Astronomy

Jul. 08, 2013 Rise Set
Actual Time 5:04 AM AKDT 11:18 PM AKDT
Civil Twilight 3:43 AM AKDT 12:38 AM AKDT
Nautical Twilight Sun does not rise Sun does not rise
Astronomical Twilight Sun does not rise Sun does not rise
Moon 6:14 AM AKDT (7/8) 10:47 PM AKDT (7/8)
Length of Visible Light 20h 54m
Length of Day
18h 13m
New Moon, 0% of the Moon is Illuminated
Jul 8
New Moon
Jul 15
First Quarter
Jul 22
Full
Jul 29
Last Quarter
Aug 6
New

Hourly Weather History & Observations

Time (AKDT) Temp. Dew Point Humidity Pressure Visibility Wind Dir Wind Speed Gust Speed Precip Events Conditions
12:53 AM 45.0 °F 44.1 °F 97% 29.72 in 10.0 mi Calm Calm - N/A   Overcast
1:04 AM 44.6 °F 42.8 °F 93% 29.72 in 10.0 mi Calm Calm - N/A   Overcast
1:20 AM 44.6 °F 42.8 °F 93% 29.72 in 10.0 mi Calm Calm - N/A   Scattered Clouds
1:46 AM 44.6 °F 41.0 °F 87% 29.72 in 10.0 mi Calm Calm - N/A   Mostly Cloudy
1:53 AM 43.0 °F 42.1 °F 97% 29.72 in 10.0 mi Calm Calm - N/A   Mostly Cloudy
2:29 AM 42.8 °F 41.0 °F 93% 29.73 in 1.5 mi Calm Calm - N/A   Overcast
2:35 AM 42.8 °F 42.8 °F 100% 29.73 in 0.2 mi Calm Calm - N/A Fog Fog
2:50 AM 42.8 °F 41.0 °F 93% 29.73 in 0.2 mi Calm Calm - N/A Fog Fog
2:53 AM 42.1 °F 41.0 °F 96% 29.73 in 0.2 mi Calm Calm - N/A Fog Fog
3:01 AM 41.0 °F 39.2 °F 93% 29.73 in 1.0 mi Calm Calm - N/A   Mostly Cloudy
3:09 AM 41.0 °F 39.2 °F 93% 29.73 in 10.0 mi Calm Calm - N/A   Mostly Cloudy
3:27 AM 39.2 °F 39.2 °F 100% 29.73 in 10.0 mi Calm Calm - N/A   Partly Cloudy
3:53 AM 39.9 °F 37.9 °F 93% 29.74 in 9.0 mi Calm Calm - N/A   Clear
4:28 AM 39.2 °F 37.4 °F 93% 29.75 in 10.0 mi Calm Calm - N/A   Partly Cloudy
4:53 AM 39.0 °F 37.0 °F 93% 29.75 in 10.0 mi Calm Calm - N/A   Clear
5:53 AM 37.9 °F 37.9 °F 100% 29.75 in 10.0 mi Calm Calm - N/A   Clear
6:53 AM 41.0 °F 39.9 °F 96% 29.75 in 10.0 mi Calm Calm - N/A   Mostly Cloudy
7:53 AM 45.0 °F 44.1 °F 97% 29.76 in 10.0 mi Calm Calm - N/A   Overcast
8:15 AM 46.4 °F 44.6 °F 93% 29.76 in 10.0 mi Calm Calm - N/A   Overcast
8:53 AM 48.0 °F 46.0 °F 93% 29.77 in 10.0 mi Calm Calm - N/A   Overcast
9:53 AM 48.9 °F 46.9 °F 93% 29.78 in 10.0 mi Calm Calm - 0.01 in   Overcast
10:53 AM 53.1 °F 48.0 °F 83% 29.78 in 10.0 mi SSW 3.5 mph - N/A   Overcast
11:32 AM 55.4 °F 48.2 °F 77% 29.78 in 10.0 mi South 6.9 mph - N/A   Overcast
11:53 AM 55.9 °F 48.0 °F 75% 29.78 in 10.0 mi South 5.8 mph - N/A   Overcast
12:25 PM 53.6 °F 48.2 °F 82% 29.79 in 10.0 mi NNE 4.6 mph - N/A   Overcast
12:53 PM 55.9 °F 51.1 °F 84% 29.80 in 10.0 mi Calm Calm - N/A   Overcast
1:53 PM 57.9 °F 51.1 °F 78% 29.80 in 10.0 mi NNE 4.6 mph - N/A   Overcast
2:49 PM 57.2 °F 48.2 °F 72% 29.81 in 10.0 mi South 8.1 mph - N/A   Overcast
2:53 PM 57.9 °F 46.9 °F 67% 29.81 in 10.0 mi South 9.2 mph - N/A   Overcast
3:32 PM 57.2 °F 46.4 °F 67% 29.82 in 10.0 mi South 8.1 mph - N/A   Overcast
3:53 PM 57.0 °F 46.9 °F 69% 29.83 in 10.0 mi SSW 4.6 mph - N/A   Overcast
4:29 PM 57.2 °F 46.4 °F 67% 29.83 in 10.0 mi SSW 5.8 mph - N/A   Overcast
4:37 PM 57.2 °F 46.4 °F 67% 29.83 in 10.0 mi SSE 3.5 mph - N/A   Overcast
4:53 PM 57.9 °F 46.9 °F 67% 29.83 in 10.0 mi Variable 6.9 mph - N/A   Overcast
5:24 PM 57.2 °F 46.4 °F 67% 29.83 in 10.0 mi Variable 4.6 mph - N/A   Overcast
5:53 PM 57.0 °F 46.0 °F 67% 29.84 in 10.0 mi Variable 3.5 mph - N/A   Overcast
6:53 PM 57.0 °F 45.0 °F 64% 29.84 in 10.0 mi Variable 5.8 mph - N/A   Overcast
7:53 PM 57.0 °F 44.1 °F 62% 29.85 in 10.0 mi SSW 4.6 mph - N/A   Overcast
8:53 PM 57.0 °F 43.0 °F 59% 29.85 in 10.0 mi Variable 3.5 mph - N/A   Mostly Cloudy
9:53 PM 54.0 °F 44.1 °F 69% 29.86 in 10.0 mi South 8.1 mph - N/A   Clear
10:53 PM 53.1 °F 44.1 °F 71% 29.86 in 10.0 mi South 9.2 mph - N/A   Overcast
11:53 PM 52.0 °F 44.1 °F 74% 29.87 in 10.0 mi South 6.9 mph - N/A   Overcast